User: anonymous   Login
Location: Unspecified
(0.0000°N, 0.0000°E)
Time: 23:40:50
(UTC+00:00)
Language:

NOAA 17 - Orbit

View from above orbital plane
View from above orbital plane
View from above satellite
View from above satellite

Ground track
Ground track

The orbit data is extracted from the following two-line orbital elements,

1 27453U 02032A   15184.44054117 -.00000002  00000-0  16807-4 0  9992
2 27453 098.3407 169.6330 0012625 130.9839 229.2436 14.24889633676972
Epoch (UTC): 03 July 2015 10:34:22
Eccentricity: 0.0012625
inclination: 98.3407°
perigee height: 800 km
apogee height: 818 km
right ascension of ascending node: 169.6330°
argument of perigee: 130.9839°
revolutions per day: 14.24889633
mean anomaly at epoch: 229.2436°
orbit number at epoch: 67697

The dashed part of the orbit path shows where the satellite is in the earth's shadow,  

DLR